Showing default

ALSAT 1B, 41785

Orbit data source: Space-Track

ALSAT 1B, 41785 is a payload satellite owned by ASAL (DZ) in SSO that was launched on Mon, 26 Sep 2016 UTC via a PSLV launch vehicle from the Sirharikota (SRI). Payload-class satellites include a variety of spacecraft equipped with specific instruments for various scientific and technological missions. These include communications satellites like Starlink; space stations such as the ISS; scientific satellites like the Hubble; Earth observation satellites from companies like Planet Labs, Umbra, and HawkEye 360; GPS; miniature CubeSats for education and research; and military/defense satellites.

Loading next visibility...
Identifier
41785, 2016-059C
Orbit
SSO
Last TLE update
5 hours ago
Origin
Manufacturer
SSTL (Astrium)
Mission
Operational Civil Imaging
Bus & Motor
SSTL-100, Unknown motor
Mass
103 kg wet, 103 kg dry
Launch date (UTC)
2016-09-26 (9 years ago)
Launch vehicle
PSLV
Launch site
Sirharikota (SRI)
Object type
Payload
Rocket body
Debris
Shape & HBR
Box + 1 Ant, 6.6 m
Radar Cross Section
0.862 m², Medium (>0.1 m² and < 1m²)

Expand to show TLE details & history

TLE from 5 hours ago
0 ALSAT 1B
1 41785U 16059C   25186.51251891  .00000298  00000-0  55161-4 0  9991
2 41785  97.7876 205.1247 0007919 258.8509 101.1809 14.71853544469578
Epoch: 2025-07-05T12:18Z
TLE epoch observation values (Epoch: 2025-07-05T12:18:01.633Z)
Latitude
-0.00001°
Longitude
96.8684°
Altitude
659.255 km
Speed
7.527 km/s
True Right ascension
13h 40m 29s
True Declination
0° 00' 00"
Sunlit
Object was in daylight at epoch
Visualization orbit readout
Latitude
70.1937°
Longitude
74.88571°
Altitude
672.82 km
Speed
7.524 km/s
Apparent Right ascension
15h 52m 12s
Apparent Declination
23° 24' 57"
Sunlit
Object is in daylight
Visualization observer readout
Local Sidereal Time
05:26:34
Azimuth
23.502° NE
Elevation
-22.955°
Doppler factor
1
Orbital elements
Apogee altitude
657.771 km
Perigee altitude
646.637 km
Semi-major axis
7,030.341 km
Eccentricity
0.00079
Inclination
97.7876°
RAAN
205.1247°
Arg. of periapsis
258.8509°
True anomaly
Unknown
Mean anomaly
101.1809°
Eccentric anomaly
Unknown
Mean motion
3.68196 °/min
Orbital period
97.77 mins
BSTAR
0.000055161
Loading maneuver chart data...
Loading SW <> Apogee altitude chart data...
Loading historical data...
Loading historical data...
Loading historical data...
Loading historical data...
Loading historical data...
Loading historical data...
Loading historical data...

ALSAT 1B Visibility forecast

Observer location: undefined°, undefined°

Span
Click to sort rows by Start time (UTC) header in descending order
Start Az.
Max El. time (UTC)
Max El. Az.
Max El.
End time (UTC)
End Az.
7 mins2025-07-06 01:29:11.064Z180.882° SSW2025-07-06 01:32:11.064Z274.717° WNW42.306°2025-07-06 01:36:11.064Z341.226° N
6 mins2025-07-06 13:22:11.064Z47.394° ENE2025-07-06 13:25:11.064Z103.711° ESE24.514°2025-07-06 13:28:11.064Z150.566° SSE
6 mins2025-07-06 14:59:11.064Z335.245° NNW2025-07-06 15:01:11.064Z300.144° NW23.978°2025-07-06 15:05:11.064Z235.393° WSW
|